,,PressureMeas_1m,,PRMeasQMR101_1,,RHStat155_1m_1,,SRMeasQMS101R_1m,,TAStat155_1m_1,,GenWind_1,,GenWind_1,
2019-09-04, 00:00:06,VALID,918.51,VALID,0.0,VALID,98.719,VALID,0.014,VALID,20.768,INVALID,360.0,VALID,0.0,
2019-09-04, 00:01:06,VALID,918.502,VALID,0.0,VALID,98.669,VALID,0.014,VALID,20.722,INVALID,360.0,VALID,0.0,
2019-09-04, 00:02:06,VALID,918.476,VALID,0.0,VALID,98.529,VALID,0.011,VALID,20.656,INVALID,360.0,VALID,0.0,
2019-09-04, 00:03:06,VALID,918.464,VALID,0.0,VALID,98.58,VALID,0.013,VALID,20.668,INVALID,360.0,VALID,0.0,
2019-09-04, 00:04:06,VALID,918.428,VALID,0.0,VALID,98.649,VALID,0.026,VALID,20.671,INVALID,360.0,VALID,0.0,
2019-09-04, 00:05:06,VALID,918.433,VALID,0.0,VALID,98.726,VALID,-0.013,VALID,20.672,INVALID,360.0,VALID,0.0,
2019-09-04, 00:06:06,VALID,918.419,VALID,0.0,VALID,98.786,VALID,-0.015,VALID,20.685,INVALID,360.0,VALID,0.0,
2019-09-04, 00:07:06,VALID,918.408,VALID,0.0,VALID,98.865,VALID,-0.015,VALID,20.694,INVALID,360.0,VALID,0.0,
2019-09-04, 00:08:06,VALID,918.399,VALID,0.0,VALID,98.899,VALID,-0.007,VALID,20.688,INVALID,360.0,VALID,0.0,
2019-09-04, 00:09:06,VALID,918.398,VALID,0.0,VALID,98.959,VALID,-0.009,VALID,20.681,INVALID,360.0,VALID,0.0,
2019-09-04, 00:10:06,VALID,918.406,VALID,0.0,VALID,98.915,VALID,-0.003,VALID,20.634,INVALID,360.0,VALID,0.0,
2019-09-04, 00:11:06,VALID,918.404,VALID,0.0,VALID,98.916,VALID,-0.002,VALID,20.589,INVALID,360.0,VALID,0.0,
2019-09-04, 00:12:06,VALID,918.398,VALID,0.0,VALID,98.936,VALID,0.0,VALID,20.586,INVALID,360.0,VALID,0.0,
2019-09-04, 00:13:06,VALID,918.403,VALID,0.0,VALID,98.961,VALID,0.001,VALID,20.576,INVALID,360.0,VALID,0.0,
2019-09-04, 00:14:06,VALID,918.401,VALID,0.0,VALID,98.999,VALID,-0.005,VALID,20.575,INVALID,360.0,VALID,0.0,
2019-09-04, 00:15:06,VALID,918.375,VALID,0.0,VALID,99.025,VALID,-0.003,VALID,20.584,INVALID,360.0,VALID,0.0,
2019-09-04, 00:16:06,VALID,918.377,VALID,0.0,VALID,99.042,VALID,-0.012,VALID,20.586,INVALID,360.0,VALID,0.0,
2019-09-04, 00:17:06,VALID,918.336,VALID,0.0,VALID,99.052,VALID,-0.007,VALID,20.609,INVALID,360.0,VALID,0.0,
2019-09-04, 00:18:06,VALID,918.328,VALID,0.0,VALID,99.084,VALID,-0.014,VALID,20.624,INVALID,360.0,VALID,0.0,
2019-09-04, 00:19:06,VALID,918.309,VALID,0.0,VALID,99.102,VALID,-0.01,VALID,20.643,INVALID,360.0,VALID,0.0,
2019-09-04, 00:20:06,VALID,918.286,VALID,0.0,VALID,99.095,VALID,-0.006,VALID,20.658,INVALID,360.0,VALID,0.0,
2019-09-04, 00:21:06,VALID,918.278,VALID,0.0,VALID,99.079,VALID,-0.005,VALID,20.681,INVALID,360.0,VALID,0.0,
2019-09-04, 00:22:06,VALID,918.276,VALID,0.0,VALID,99.045,VALID,-0.015,VALID,20.688,INVALID,360.0,VALID,0.0,
2019-09-04, 00:23:06,VALID,918.259,VALID,0.0,VALID,99.04,VALID,-0.007,VALID,20.707,INVALID,360.0,VALID,0.0,
2019-09-04, 00:24:06,VALID,918.264,VALID,0.0,VALID,98.987,VALID,0.008,VALID,20.706,INVALID,360.0,VALID,0.0,
2019-09-04, 00:25:06,VALID,918.272,VALID,0.0,VALID,98.917,VALID,0.001,VALID,20.697,INVALID,360.0,VALID,0.0,
2019-09-04, 00:26:06,VALID,918.284,VALID,0.0,VALID,98.85,VALID,-0.009,VALID,20.695,INVALID,360.0,VALID,0.0,
2019-09-04, 00:27:06,VALID,918.287,VALID,0.0,VALID,98.821,VALID,0.002,VALID,20.686,INVALID,360.0,VALID,0.0,
2019-09-04, 00:28:06,VALID,918.292,VALID,0.0,VALID,98.765,VALID,-0.008,VALID,20.678,VALID,48.0,VALID,0.0,
2019-09-04, 00:29:06,VALID,918.292,VALID,0.0,VALID,98.708,VALID,-0.003,VALID,20.652,INVALID,360.0,VALID,0.0,
2019-09-04, 00:30:06,VALID,918.322,VALID,0.0,VALID,98.711,VALID,-0.016,VALID,20.647,INVALID,360.0,VALID,0.0,
2019-09-04, 00:31:06,VALID,918.326,VALID,0.0,VALID,98.779,VALID,-0.019,VALID,20.653,VALID,48.0,VALID,0.0,
2019-09-04, 00:32:06,VALID,918.326,VALID,0.0,VALID,98.796,VALID,-0.029,VALID,20.648,INVALID,360.0,VALID,0.0,
2019-09-04, 00:33:06,VALID,918.325,VALID,0.0,VALID,98.805,VALID,-0.005,VALID,20.641,INVALID,360.0,VALID,0.0,
2019-09-04, 00:34:06,VALID,918.339,VALID,0.0,VALID,98.814,VALID,-0.016,VALID,20.638,INVALID,360.0,VALID,0.0,
2019-09-04, 00:35:06,VALID,918.345,VALID,0.0,VALID,98.819,VALID,0.023,VALID,20.636,VALID,48.0,VALID,0.0,
2019-09-04, 00:36:06,VALID,918.363,VALID,0.0,VALID,98.779,VALID,0.029,VALID,20.631,INVALID,360.0,VALID,0.0,
2019-09-04, 00:37:06,VALID,918.366,VALID,0.0,VALID,98.771,VALID,0.038,VALID,20.636,INVALID,360.0,VALID,0.0,
2019-09-04, 00:38:06,VALID,918.356,VALID,0.0,VALID,98.754,VALID,0.046,VALID,20.629,INVALID,360.0,VALID,0.0,
2019-09-04, 00:39:06,VALID,918.353,VALID,0.0,VALID,98.663,VALID,0.025,VALID,20.616,INVALID,360.0,VALID,0.0,
2019-09-04, 00:40:06,VALID,918.345,VALID,0.0,VALID,98.653,VALID,0.015,VALID,20.626,INVALID,360.0,VALID,0.0,
2019-09-04, 00:41:06,VALID,918.325,VALID,0.0,VALID,98.637,VALID,0.017,VALID,20.634,INVALID,360.0,VALID,0.0,
2019-09-04, 00:42:06,VALID,918.326,VALID,0.0,VALID,98.596,VALID,0.028,VALID,20.633,INVALID,360.0,VALID,0.0,
2019-09-04, 00:43:06,VALID,918.307,VALID,0.0,VALID,98.575,VALID,0.015,VALID,20.646,INVALID,360.0,VALID,0.0,
2019-09-04, 00:44:06,VALID,918.277,VALID,0.0,VALID,98.573,VALID,0.03,VALID,20.662,INVALID,360.0,VALID,0.0,
2019-09-04, 00:45:06,VALID,918.283,VALID,0.0,VALID,98.568,VALID,0.019,VALID,20.684,INVALID,360.0,VALID,0.0,
2019-09-04, 00:46:06,VALID,918.257,VALID,0.0,VALID,98.535,VALID,0.033,VALID,20.7,INVALID,360.0,VALID,0.0,
2019-09-04, 00:47:06,VALID,918.249,VALID,0.0,VALID,98.461,VALID,0.022,VALID,20.71,INVALID,360.0,VALID,0.0,
2019-09-04, 00:48:06,VALID,918.244,VALID,0.0,VALID,98.429,VALID,0.02,VALID,20.722,INVALID,360.0,VALID,0.0,
2019-09-04, 00:49:06,VALID,918.234,VALID,0.0,VALID,98.333,VALID,0.01,VALID,20.709,INVALID,360.0,VALID,0.0,
2019-09-04, 00:50:06,VALID,918.229,VALID,0.0,VALID,98.3,VALID,-0.004,VALID,20.708,INVALID,360.0,VALID,0.0,
2019-09-04, 00:51:06,VALID,918.213,VALID,0.0,VALID,98.227,VALID,-0.001,VALID,20.694,INVALID,360.0,VALID,0.0,
2019-09-04, 00:52:06,VALID,918.217,VALID,0.0,VALID,98.195,VALID,0.003,VALID,20.698,INVALID,360.0,VALID,0.0,
2019-09-04, 00:53:06,VALID,918.209,VALID,0.0,VALID,98.247,VALID,-0.003,VALID,20.715,VALID,48.0,VALID,0.0,
2019-09-04, 00:54:06,VALID,918.2,VALID,0.0,VALID,98.245,VALID,0.003,VALID,20.722,INVALID,360.0,VALID,0.0,
2019-09-04, 00:55:06,VALID,918.186,VALID,0.0,VALID,98.249,VALID,0.004,VALID,20.725,INVALID,360.0,VALID,0.0,
2019-09-04, 00:56:06,VALID,918.161,VALID,0.0,VALID,98.318,VALID,-0.001,VALID,20.748,INVALID,360.0,VALID,0.0,
2019-09-04, 00:57:06,VALID,918.144,VALID,0.0,VALID,98.396,VALID,0.015,VALID,20.75,INVALID,360.0,VALID,0.0,
2019-09-04, 00:58:06,VALID,918.079,VALID,0.0,VALID,98.497,VALID,0.008,VALID,20.729,INVALID,360.0,VALID,0.0,
2019-09-04, 00:59:06,VALID,918.021,VALID,0.0,VALID,98.528,VALID,0.02,VALID,20.714,VALID,49.0,VALID,0.0,
2019-09-04, 01:00:06,VALID,917.987,VALID,0.0,VALID,98.604,VALID,0.021,VALID,20.702,INVALID,360.0,VALID,0.0,
2019-09-04, 01:01:06,VALID,917.95,VALID,0.0,VALID,98.676,VALID,0.005,VALID,20.699,INVALID,360.0,VALID,0.0,
2019-09-04, 01:02:06,VALID,917.927,VALID,0.0,VALID,98.643,VALID,0.011,VALID,20.672,INVALID,360.0,VALID,0.0,
2019-09-04, 01:03:06,VALID,917.905,VALID,0.0,VALID,98.641,VALID,0.006,VALID,20.654,VALID,48.0,VALID,0.0,
2019-09-04, 01:04:06,VALID,917.895,VALID,0.0,VALID,98.648,VALID,0.012,VALID,20.644,INVALID,360.0,VALID,0.0,
2019-09-04, 01:05:06,VALID,917.912,VALID,0.0,VALID,98.646,VALID,-0.036,VALID,20.638,INVALID,360.0,VALID,0.0,
2019-09-04, 01:06:06,VALID,917.929,VALID,0.0,VALID,98.646,VALID,-0.046,VALID,20.631,INVALID,360.0,VALID,0.0,
2019-09-04, 01:07:06,VALID,917.918,VALID,0.0,VALID,98.617,VALID,-0.043,VALID,20.601,INVALID,360.0,VALID,0.0,
2019-09-04, 01:08:06,VALID,917.923,VALID,0.0,VALID,98.518,VALID,-0.04,VALID,20.549,INVALID,360.0,VALID,0.0,
2019-09-04, 01:09:06,VALID,917.924,VALID,0.0,VALID,98.542,VALID,-0.032,VALID,20.555,INVALID,360.0,VALID,0.0,
2019-09-04, 01:10:06,VALID,917.92,VALID,0.0,VALID,98.57,VALID,-0.043,VALID,20.55,INVALID,360.0,VALID,0.0,
2019-09-04, 01:11:06,VALID,917.917,VALID,0.0,VALID,98.608,VALID,-0.043,VALID,20.544,INVALID,360.0,VALID,0.0,
2019-09-04, 01:12:06,VALID,917.904,VALID,0.0,VALID,98.616,VALID,-0.045,VALID,20.531,INVALID,360.0,VALID,0.0,
2019-09-04, 01:13:06,VALID,917.895,VALID,0.0,VALID,98.636,VALID,-0.021,VALID,20.516,INVALID,360.0,VALID,0.0,
2019-09-04, 01:14:06,VALID,917.915,VALID,0.0,VALID,98.692,VALID,-0.041,VALID,20.525,INVALID,360.0,VALID,0.0,
2019-09-04, 01:15:06,VALID,917.92,VALID,0.0,VALID,98.747,VALID,-0.04,VALID,20.556,INVALID,360.0,VALID,0.0,
2019-09-04, 01:16:06,VALID,917.927,VALID,0.0,VALID,98.717,VALID,-0.04,VALID,20.557,INVALID,360.0,VALID,0.0,
2019-09-04, 01:17:06,VALID,917.916,VALID,0.0,VALID,98.697,VALID,-0.031,VALID,20.561,INVALID,360.0,VALID,0.0,
2019-09-04, 01:18:06,VALID,917.937,VALID,0.0,VALID,98.73,VALID,-0.046,VALID,20.593,INVALID,360.0,VALID,0.0,
2019-09-04, 01:19:06,VALID,917.966,VALID,0.0,VALID,98.846,VALID,-0.033,VALID,20.62,INVALID,360.0,VALID,0.0,
2019-09-04, 01:20:06,VALID,917.964,VALID,0.0,VALID,98.825,VALID,-0.025,VALID,20.599,INVALID,360.0,VALID,0.0,
2019-09-04, 01:21:06,VALID,917.963,VALID,0.0,VALID,98.847,VALID,-0.038,VALID,20.582,INVALID,360.0,VALID,0.0,
2019-09-04, 01:22:06,VALID,917.956,VALID,0.0,VALID,98.877,VALID,-0.019,VALID,20.57,INVALID,360.0,VALID,0.0,
2019-09-04, 01:23:06,VALID,917.929,VALID,0.0,VALID,98.898,VALID,-0.024,VALID,20.569,INVALID,360.0,VALID,0.0,
2019-09-04, 01:24:06,VALID,917.9,VALID,0.0,VALID,98.926,VALID,-0.019,VALID,20.563,INVALID,360.0,VALID,0.0,
2019-09-04, 01:25:06,VALID,917.9,VALID,0.0,VALID,98.933,VALID,-0.025,VALID,20.557,INVALID,360.0,VALID,0.0,
2019-09-04, 01:26:06,VALID,917.879,VALID,0.0,VALID,98.989,VALID,-0.025,VALID,20.549,INVALID,360.0,VALID,0.0,
2019-09-04, 01:27:06,VALID,917.868,VALID,0.0,VALID,99.001,VALID,-0.03,VALID,20.543,INVALID,360.0,VALID,0.0,
2019-09-04, 01:28:06,VALID,917.894,VALID,0.0,VALID,99.032,VALID,-0.022,VALID,20.516,INVALID,360.0,VALID,0.0,
2019-09-04, 01:29:06,VALID,917.904,VALID,0.0,VALID,99.042,VALID,-0.045,VALID,20.484,INVALID,360.0,VALID,0.0,
2019-09-04, 01:30:06,VALID,917.918,VALID,0.0,VALID,99.074,VALID,-0.027,VALID,20.472,INVALID,360.0,VALID,0.0,
2019-09-04, 01:31:06,VALID,917.945,VALID,0.0,VALID,99.099,VALID,-0.024,VALID,20.467,INVALID,360.0,VALID,0.0,
2019-09-04, 01:32:06,VALID,917.967,VALID,0.0,VALID,99.114,VALID,-0.017,VALID,20.459,INVALID,360.0,VALID,0.0,
2019-09-04, 01:33:06,VALID,917.994,VALID,0.0,VALID,99.137,VALID,-0.029,VALID,20.456,INVALID,360.0,VALID,0.0,
2019-09-04, 01:34:06,VALID,918.012,VALID,0.0,VALID,99.145,VALID,-0.023,VALID,20.466,INVALID,360.0,VALID,0.0,
2019-09-04, 01:35:06,VALID,918.01,VALID,0.0,VALID,99.153,VALID,-0.044,VALID,20.47,INVALID,360.0,VALID,0.0,
2019-09-04, 01:36:06,VALID,918.017,VALID,0.0,VALID,99.154,VALID,-0.066,VALID,20.476,INVALID,360.0,VALID,0.0,
2019-09-04, 01:37:06,VALID,918.036,VALID,0.0,VALID,99.157,VALID,-0.053,VALID,20.485,INVALID,360.0,VALID,0.0,
2019-09-04, 01:38:06,VALID,918.033,VALID,0.0,VALID,99.148,VALID,-0.067,VALID,20.506,INVALID,360.0,VALID,0.0,
2019-09-04, 01:39:06,VALID,918.046,VALID,0.0,VALID,99.111,VALID,-0.069,VALID,20.498,INVALID,360.0,VALID,0.0,
2019-09-04, 01:40:06,VALID,918.031,VALID,0.0,VALID,99.093,VALID,-0.056,VALID,20.501,INVALID,360.0,VALID,0.0,
2019-09-04, 01:41:06,VALID,918.041,VALID,0.0,VALID,99.051,VALID,-0.062,VALID,20.489,INVALID,360.0,VALID,0.0,
2019-09-04, 01:42:06,VALID,918.058,VALID,0.0,VALID,99.003,VALID,-0.083,VALID,20.488,INVALID,360.0,VALID,0.0,
2019-09-04, 01:43:06,VALID,918.075,VALID,0.0,VALID,98.994,VALID,-0.049,VALID,20.491,INVALID,360.0,VALID,0.0,
2019-09-04, 01:44:06,VALID,918.083,VALID,0.0,VALID,98.953,VALID,-0.046,VALID,20.48,INVALID,360.0,VALID,0.0,
2019-09-04, 01:45:06,VALID,918.074,VALID,0.0,VALID,98.898,VALID,-0.054,VALID,20.471,INVALID,360.0,VALID,0.0,
2019-09-04, 01:46:06,VALID,918.088,VALID,0.0,VALID,98.855,VALID,-0.054,VALID,20.465,VALID,50.0,VALID,0.0,
2019-09-04, 01:47:06,VALID,918.067,VALID,0.0,VALID,98.809,VALID,-0.069,VALID,20.476,INVALID,360.0,VALID,0.0,
2019-09-04, 01:48:06,VALID,918.051,VALID,0.0,VALID,98.757,VALID,-0.066,VALID,20.495,INVALID,360.0,VALID,0.0,
2019-09-04, 01:49:06,VALID,918.02,VALID,0.0,VALID,98.737,VALID,-0.048,VALID,20.518,INVALID,360.0,VALID,0.0,
2019-09-04, 01:50:06,VALID,918.015,VALID,0.0,VALID,98.682,VALID,0.013,VALID,20.531,INVALID,360.0,VALID,0.0,
2019-09-04, 01:51:06,VALID,917.999,VALID,0.0,VALID,98.577,VALID,0.011,VALID,20.553,INVALID,360.0,VALID,0.0,
2019-09-04, 01:52:06,VALID,917.983,VALID,0.0,VALID,98.487,VALID,0.01,VALID,20.567,INVALID,360.0,VALID,0.0,
2019-09-04, 01:53:06,VALID,918.002,VALID,0.0,VALID,98.395,VALID,0.011,VALID,20.573,INVALID,360.0,VALID,0.0,
2019-09-04, 01:54:06,VALID,918.005,VALID,0.0,VALID,98.346,VALID,0.015,VALID,20.576,INVALID,360.0,VALID,0.0,
2019-09-04, 01:55:06,VALID,917.994,VALID,0.0,VALID,98.292,VALID,0.025,VALID,20.58,INVALID,360.0,VALID,0.0,
2019-09-04, 01:56:06,VALID,918.008,VALID,0.0,VALID,98.211,VALID,-0.007,VALID,20.591,INVALID,360.0,VALID,0.0,
2019-09-04, 01:57:06,VALID,918.03,VALID,0.0,VALID,98.156,VALID,-0.003,VALID,20.617,INVALID,360.0,VALID,0.0,
2019-09-04, 01:58:06,VALID,918.041,VALID,0.0,VALID,98.076,VALID,0.011,VALID,20.651,INVALID,360.0,VALID,0.0,
2019-09-04, 01:59:06,VALID,918.025,VALID,0.0,VALID,97.984,VALID,0.018,VALID,20.681,INVALID,360.0,VALID,0.0,
2019-09-04, 02:00:06,VALID,918.024,VALID,0.0,VALID,97.906,VALID,-0.003,VALID,20.695,INVALID,360.0,VALID,0.0,
2019-09-04, 02:01:06,VALID,917.996,VALID,0.0,VALID,97.953,VALID,-0.002,VALID,20.698,INVALID,360.0,VALID,0.0,
2019-09-04, 02:02:06,VALID,917.957,VALID,0.0,VALID,98.028,VALID,-0.018,VALID,20.671,INVALID,360.0,VALID,0.0,
2019-09-04, 02:03:07,VALID,917.941,VALID,0.0,VALID,98.216,VALID,0.0,VALID,20.635,INVALID,360.0,VALID,0.0,
2019-09-04, 02:04:07,VALID,917.892,VALID,0.0,VALID,98.414,VALID,-0.003,VALID,20.607,INVALID,360.0,VALID,0.0,
2019-09-04, 02:05:07,VALID,917.876,VALID,0.0,VALID,98.563,VALID,-0.062,VALID,20.584,INVALID,360.0,VALID,0.0,
2019-09-04, 02:06:07,VALID,917.85,VALID,0.0,VALID,98.669,VALID,-0.048,VALID,20.571,INVALID,360.0,VALID,0.0,
2019-09-04, 02:07:07,VALID,917.83,VALID,0.0,VALID,98.75,VALID,-0.053,VALID,20.548,INVALID,360.0,VALID,0.0,
2019-09-04, 02:08:07,VALID,917.818,VALID,0.0,VALID,98.823,VALID,-0.039,VALID,20.524,INVALID,360.0,VALID,0.0,
2019-09-04, 02:09:07,VALID,917.83,VALID,0.0,VALID,98.89,VALID,-0.042,VALID,20.507,INVALID,360.0,VALID,0.0,
2019-09-04, 02:10:07,VALID,917.799,VALID,0.0,VALID,98.952,VALID,-0.04,VALID,20.499,INVALID,360.0,VALID,0.0,
2019-09-04, 02:11:07,VALID,917.812,VALID,0.0,VALID,98.953,VALID,-0.046,VALID,20.486,INVALID,360.0,VALID,0.0,
2019-09-04, 02:12:07,VALID,917.791,VALID,0.0,VALID,98.941,VALID,-0.034,VALID,20.473,INVALID,360.0,VALID,0.0,
2019-09-04, 02:13:07,VALID,917.802,VALID,0.0,VALID,98.949,VALID,-0.055,VALID,20.484,INVALID,360.0,VALID,0.0,
2019-09-04, 02:14:07,VALID,917.766,VALID,0.0,VALID,98.951,VALID,-0.048,VALID,20.493,INVALID,360.0,VALID,0.0,
2019-09-04, 02:15:07,VALID,917.769,VALID,0.0,VALID,98.953,VALID,-0.034,VALID,20.507,INVALID,360.0,VALID,0.0,
2019-09-04, 02:16:07,VALID,917.746,VALID,0.0,VALID,98.928,VALID,-0.048,VALID,20.508,INVALID,360.0,VALID,0.0,
2019-09-04, 02:17:07,VALID,917.735,VALID,0.0,VALID,98.873,VALID,-0.049,VALID,20.501,INVALID,360.0,VALID,0.0,
2019-09-04, 02:18:07,VALID,917.733,VALID,0.0,VALID,98.83,VALID,-0.024,VALID,20.489,INVALID,360.0,VALID,0.0,
2019-09-04, 02:19:07,VALID,917.706,VALID,0.0,VALID,98.808,VALID,-0.038,VALID,20.478,INVALID,360.0,VALID,0.0,
2019-09-04, 02:20:07,VALID,917.697,VALID,0.0,VALID,98.774,VALID,0.021,VALID,20.461,INVALID,360.0,VALID,0.0,
2019-09-04, 02:21:07,VALID,917.659,VALID,0.0,VALID,98.767,VALID,0.034,VALID,20.455,INVALID,360.0,VALID,0.0,
2019-09-04, 02:22:07,VALID,917.645,VALID,0.0,VALID,98.786,VALID,0.025,VALID,20.453,INVALID,360.0,VALID,0.0,
2019-09-04, 02:23:07,VALID,917.613,VALID,0.0,VALID,98.807,VALID,0.006,VALID,20.439,INVALID,360.0,VALID,0.0,
2019-09-04, 02:24:07,VALID,917.603,VALID,0.0,VALID,98.791,VALID,0.008,VALID,20.415,INVALID,360.0,VALID,0.0,
2019-09-04, 02:25:07,VALID,917.582,VALID,0.0,VALID,98.832,VALID,0.007,VALID,20.421,INVALID,360.0,VALID,0.0,
2019-09-04, 02:26:07,VALID,917.583,VALID,0.0,VALID,98.912,VALID,0.024,VALID,20.422,INVALID,360.0,VALID,0.0,
2019-09-04, 02:27:07,VALID,917.585,VALID,0.0,VALID,98.93,VALID,0.007,VALID,20.427,INVALID,360.0,VALID,0.0,
2019-09-04, 02:28:07,VALID,917.601,VALID,0.0,VALID,98.987,VALID,0.027,VALID,20.431,INVALID,360.0,VALID,0.0,
2019-09-04, 02:29:07,VALID,917.623,VALID,0.0,VALID,98.995,VALID,0.045,VALID,20.444,INVALID,360.0,VALID,0.0,
2019-09-04, 02:30:07,VALID,917.621,VALID,0.0,VALID,99.011,VALID,0.027,VALID,20.438,INVALID,360.0,VALID,0.0,
2019-09-04, 02:31:07,VALID,917.612,VALID,0.0,VALID,99.022,VALID,0.029,VALID,20.432,INVALID,360.0,VALID,0.0,
2019-09-04, 02:32:07,VALID,917.609,VALID,0.0,VALID,99.024,VALID,0.02,VALID,20.428,INVALID,360.0,VALID,0.0,
2019-09-04, 02:33:07,VALID,917.6,VALID,0.0,VALID,99.018,VALID,0.022,VALID,20.422,INVALID,360.0,VALID,0.0,
2019-09-04, 02:34:07,VALID,917.597,VALID,0.0,VALID,99.041,VALID,0.014,VALID,20.422,INVALID,360.0,VALID,0.0,
2019-09-04, 02:35:07,VALID,917.574,VALID,0.0,VALID,99.047,VALID,0.002,VALID,20.429,INVALID,360.0,VALID,0.0,
2019-09-04, 02:36:07,VALID,917.566,VALID,0.0,VALID,99.046,VALID,0.01,VALID,20.429,INVALID,360.0,VALID,0.0,
2019-09-04, 02:37:07,VALID,917.562,VALID,0.0,VALID,99.072,VALID,-0.002,VALID,20.429,INVALID,360.0,VALID,0.0,
2019-09-04, 02:38:07,VALID,917.566,VALID,0.0,VALID,99.061,VALID,-0.003,VALID,20.428,INVALID,360.0,VALID,0.0,
2019-09-04, 02:39:07,VALID,917.565,VALID,0.0,VALID,99.076,VALID,-0.003,VALID,20.427,INVALID,360.0,VALID,0.0,
2019-09-04, 02:40:07,VALID,917.578,VALID,0.0,VALID,99.076,VALID,-0.011,VALID,20.432,INVALID,360.0,VALID,0.0,
2019-09-04, 02:41:07,VALID,917.582,VALID,0.0,VALID,99.089,VALID,-0.017,VALID,20.45,INVALID,360.0,VALID,0.0,
2019-09-04, 02:42:07,VALID,917.591,VALID,0.0,VALID,99.088,VALID,-0.005,VALID,20.463,INVALID,360.0,VALID,0.0,
2019-09-04, 02:43:07,VALID,917.587,VALID,0.0,VALID,99.063,VALID,-0.028,VALID,20.465,INVALID,360.0,VALID,0.0,
2019-09-04, 02:44:07,VALID,917.602,VALID,0.0,VALID,99.055,VALID,-0.012,VALID,20.473,INVALID,360.0,VALID,0.0,
2019-09-04, 02:45:07,VALID,917.61,VALID,0.0,VALID,99.045,VALID,-0.027,VALID,20.477,INVALID,360.0,VALID,0.0,
2019-09-04, 02:46:07,VALID,917.625,VALID,0.0,VALID,99.034,VALID,-0.01,VALID,20.47,VALID,48.0,VALID,0.0,
2019-09-04, 02:47:07,VALID,917.611,VALID,0.0,VALID,98.998,VALID,0.014,VALID,20.459,INVALID,360.0,VALID,0.0,
2019-09-04, 02:48:07,VALID,917.618,VALID,0.0,VALID,98.993,VALID,0.009,VALID,20.446,INVALID,360.0,VALID,0.0,
2019-09-04, 02:49:07,VALID,917.615,VALID,0.0,VALID,98.945,VALID,-0.017,VALID,20.421,INVALID,360.0,VALID,0.0,
2019-09-04, 02:50:07,VALID,917.571,VALID,0.0,VALID,98.982,VALID,0.009,VALID,20.422,INVALID,360.0,VALID,0.0,
2019-09-04, 02:51:07,VALID,917.56,VALID,0.0,VALID,99.011,VALID,0.006,VALID,20.422,INVALID,360.0,VALID,0.0,
2019-09-04, 02:52:07,VALID,917.557,VALID,0.0,VALID,98.97,VALID,-0.007,VALID,20.402,INVALID,360.0,VALID,0.0,
2019-09-04, 02:53:07,VALID,917.544,VALID,0.0,VALID,98.955,VALID,-0.002,VALID,20.383,INVALID,360.0,VALID,0.0,
2019-09-04, 02:54:07,VALID,917.544,VALID,0.0,VALID,98.932,VALID,0.011,VALID,20.373,INVALID,360.0,VALID,0.0,
2019-09-04, 02:55:07,VALID,917.573,VALID,0.0,VALID,98.927,VALID,0.0,VALID,20.377,INVALID,360.0,VALID,0.0,
2019-09-04, 02:56:07,VALID,917.577,VALID,0.0,VALID,98.952,VALID,-0.006,VALID,20.399,INVALID,360.0,VALID,0.0,
2019-09-04, 02:57:07,VALID,917.592,VALID,0.0,VALID,98.937,VALID,-0.002,VALID,20.399,INVALID,360.0,VALID,0.0,
2019-09-04, 02:58:07,VALID,917.633,VALID,0.0,VALID,98.869,VALID,0.01,VALID,20.396,INVALID,360.0,VALID,0.0,
2019-09-04, 02:59:07,VALID,917.657,VALID,0.0,VALID,98.845,VALID,0.02,VALID,20.388,INVALID,360.0,VALID,0.0,
2019-09-04, 03:00:07,VALID,917.685,VALID,0.0,VALID,98.86,VALID,0.007,VALID,20.387,INVALID,360.0,VALID,0.0,
2019-09-04, 03:01:07,VALID,917.693,VALID,0.0,VALID,98.872,VALID,0.011,VALID,20.39,INVALID,360.0,VALID,0.0,
2019-09-04, 03:02:07,VALID,917.717,VALID,0.0,VALID,98.959,VALID,0.024,VALID,20.396,INVALID,360.0,VALID,0.0,
2019-09-04, 03:03:07,VALID,917.742,VALID,0.0,VALID,99.028,VALID,0.026,VALID,20.406,INVALID,360.0,VALID,0.0,
2019-09-04, 03:04:07,VALID,917.732,VALID,0.0,VALID,99.091,VALID,0.008,VALID,20.409,INVALID,360.0,VALID,0.0,
2019-09-04, 03:05:07,VALID,917.735,VALID,0.0,VALID,99.099,VALID,-0.022,VALID,20.399,VALID,360.0,VALID,0.0,
2019-09-04, 03:06:07,VALID,917.743,VALID,0.0,VALID,99.161,VALID,-0.015,VALID,20.412,VALID,360.0,VALID,0.0,
2019-09-04, 03:07:07,VALID,917.741,VALID,0.0,VALID,99.186,VALID,-0.009,VALID,20.421,VALID,360.0,VALID,0.0,
2019-09-04, 03:08:07,VALID,917.725,VALID,0.0,VALID,99.226,VALID,-0.021,VALID,20.426,VALID,360.0,VALID,0.0,
2019-09-04, 03:09:07,VALID,917.731,VALID,0.0,VALID,99.255,VALID,-0.025,VALID,20.448,VALID,360.0,VALID,0.0,
2019-09-04, 03:10:07,VALID,917.704,VALID,0.0,VALID,99.272,VALID,-0.026,VALID,20.457,VALID,360.0,VALID,0.0,
2019-09-04, 03:11:07,VALID,917.718,VALID,0.0,VALID,99.266,VALID,-0.022,VALID,20.438,INVALID,360.0,VALID,0.0,
2019-09-04, 03:12:07,VALID,917.701,VALID,0.0,VALID,99.249,VALID,-0.034,VALID,20.411,INVALID,360.0,VALID,0.0,
2019-09-04, 03:13:07,VALID,917.732,VALID,0.0,VALID,99.23,VALID,-0.024,VALID,20.389,INVALID,360.0,VALID,0.0,
2019-09-04, 03:14:07,VALID,917.733,VALID,0.0,VALID,99.285,VALID,-0.017,VALID,20.39,INVALID,360.0,VALID,0.0,
2019-09-04, 03:15:07,VALID,917.749,VALID,0.0,VALID,99.293,VALID,-0.028,VALID,20.414,INVALID,360.0,VALID,0.0,
2019-09-04, 03:16:07,VALID,917.77,VALID,0.0,VALID,99.299,VALID,-0.017,VALID,20.404,INVALID,360.0,VALID,0.0,
2019-09-04, 03:17:07,VALID,917.767,VALID,0.0,VALID,99.304,VALID,-0.023,VALID,20.395,VALID,1.0,VALID,0.0,
2019-09-04, 03:18:07,VALID,917.795,VALID,0.0,VALID,99.306,VALID,-0.029,VALID,20.389,INVALID,360.0,VALID,0.0,
2019-09-04, 03:19:07,VALID,917.801,VALID,0.0,VALID,99.343,VALID,-0.012,VALID,20.393,INVALID,360.0,VALID,0.0,
2019-09-04, 03:20:07,VALID,917.793,VALID,0.0,VALID,99.332,VALID,-0.04,VALID,20.382,INVALID,360.0,VALID,0.0,
2019-09-04, 03:21:07,VALID,917.793,VALID,0.0,VALID,99.338,VALID,-0.058,VALID,20.384,INVALID,360.0,VALID,0.0,
2019-09-04, 03:22:07,VALID,917.79,VALID,0.0,VALID,99.396,VALID,-0.049,VALID,20.404,INVALID,360.0,VALID,0.0,
2019-09-04, 03:23:07,VALID,917.793,VALID,0.0,VALID,99.431,VALID,-0.024,VALID,20.436,INVALID,360.0,VALID,0.0,
2019-09-04, 03:24:07,VALID,917.805,VALID,0.0,VALID,99.445,VALID,-0.055,VALID,20.452,INVALID,360.0,VALID,0.0,
2019-09-04, 03:25:07,VALID,917.804,VALID,0.0,VALID,99.434,VALID,-0.047,VALID,20.448,INVALID,360.0,VALID,0.0,
2019-09-04, 03:26:07,VALID,917.798,VALID,0.0,VALID,99.413,VALID,-0.049,VALID,20.42,INVALID,360.0,VALID,0.0,
2019-09-04, 03:27:07,VALID,917.796,VALID,0.0,VALID,99.436,VALID,-0.054,VALID,20.419,INVALID,360.0,VALID,0.0,
2019-09-04, 03:28:07,VALID,917.789,VALID,0.0,VALID,99.459,VALID,-0.049,VALID,20.423,INVALID,360.0,VALID,0.0,
2019-09-04, 03:29:07,VALID,917.769,VALID,0.0,VALID,99.427,VALID,-0.047,VALID,20.388,INVALID,360.0,VALID,0.0,
2019-09-04, 03:30:07,VALID,917.768,VALID,0.0,VALID,99.444,VALID,-0.059,VALID,20.378,INVALID,360.0,VALID,0.0,
2019-09-04, 03:31:07,VALID,917.77,VALID,0.0,VALID,99.452,VALID,-0.043,VALID,20.38,INVALID,360.0,VALID,0.0,
2019-09-04, 03:32:07,VALID,917.748,VALID,0.0,VALID,99.456,VALID,-0.028,VALID,20.373,INVALID,360.0,VALID,0.0,
2019-09-04, 03:33:07,VALID,917.764,VALID,0.0,VALID,99.456,VALID,-0.048,VALID,20.357,INVALID,360.0,VALID,0.0,
2019-09-04, 03:34:07,VALID,917.78,VALID,0.0,VALID,99.464,VALID,-0.048,VALID,20.346,INVALID,360.0,VALID,0.0,
2019-09-04, 03:35:07,VALID,917.783,VALID,0.0,VALID,99.465,VALID,-0.02,VALID,20.347,INVALID,360.0,VALID,0.0,
2019-09-04, 03:36:07,VALID,917.76,VALID,0.0,VALID,99.416,VALID,-0.015,VALID,20.317,INVALID,360.0,VALID,0.0,
2019-09-04, 03:37:07,VALID,917.75,VALID,0.0,VALID,99.418,VALID,-0.006,VALID,20.294,INVALID,360.0,VALID,0.0,